Home > Weather > Nassau > Past weeks

Flag for Bahamas Past Weather in Nassau, Bahamas — Yesterday and Last 2 Weeks

Now
84 °F

Passing clouds.


Feels Like: 92 °F
Forecast: 80 / 87 °F
Wind: 9 mph from Northeast

Location: Nassau Airport

Current Time: Aug 27, 2016 at 6:12:45 AM

Latest Report: Aug 27, 2016 at 6:00 AM


Visibility: N/A

Pressure: 29.98 "Hg

Humidity: 74%

Dew Point: 75 °F

Location of NassauLocation

Past Weather in Nassau — Graph

°F

Nassau Temperature Yesterday

Maximum temperature yesterday: 91 °F (at 12:00 PM)
Minimum temperature yesterday: 81 °F (at 12:00 AM)
Average temperature yesterday: 85 °F

High & Low Weather Summary for the Past Weeks

 TemperatureHumidityPressure
High93 °F (Aug 12, 3:00 PM)100% (Aug 16, 6:00 PM)30.15 "Hg (Aug 16, 6:00 PM)
Low79 °F (Aug 13, 8:00 PM)36% (Aug 12, 3:00 PM)29.88 "Hg (Aug 26, 5:00 PM)
Average85 °F76%30.04 "Hg
* Reported Aug 12 5:00 AM — Aug 27 5:00 AM, Nassau, Weather by CustomWeather, © 2016

Note: Actual official high and low records may vary slightly from our data, if they occured in-between our weather recording intervals... More about our weather records

Advertising

Nassau Weather History for the Previous 24 Hours

Scroll right to see more
 ConditionsComfort  
Time TempWeatherWind HumidityBarometerVisibility
5:00 AM
Sat, Aug 27
84 °FPassing clouds.6 mph79%29.98 "HgN/A
4:00 AM82 °FThundershowers. Passing clouds.6 mph79%29.88 "HgN/A
3:00 AM84 °FPassing clouds.6 mph70%29.88 "HgN/A
2:00 AM84 °FPassing clouds.6 mph79%29.90 "HgN/A
1:00 AM84 °FPassing clouds.9 mph74%29.92 "HgN/A
12:00 AM84 °FThundershowers. Passing clouds.7 mph79%29.93 "HgN/A
11:00 PM
Fri, Aug 26
86 °FPassing clouds.8 mph75%29.93 "HgN/A
10:00 PM84 °FPassing clouds.8 mph84%29.92 "HgN/A
9:00 PM84 °FPassing clouds.9 mph84%29.91 "HgN/A
8:00 PM84 °FSprinkles. Scattered clouds.8 mph84%29.88 "HgN/A
7:00 PM88 °FScattered clouds.10 mph75%29.88 "HgN/A
6:00 PM88 °FScattered clouds.13 mph75%29.98 "HgN/A
5:00 PM90 °FScattered showers. Scattered clouds.12 mph71%29.88 "HgN/A
4:00 PM90 °FScattered clouds.16 mph75%29.89 "HgN/A
3:00 PM90 °FScattered clouds.14 mph75%29.91 "HgN/A
2:00 PM90 °FSprinkles. Scattered clouds.12 mph75%29.93 "HgN/A
1:00 PM91 °FScattered clouds.9 mph67%29.94 "HgN/A
12:00 PM91 °FScattered clouds.9 mph67%29.95 "HgN/A
11:00 AM90 °FScattered clouds.13 mph75%29.95 "HgN/A
10:00 AM88 °FScattered clouds.8 mph75%29.96 "HgN/A
9:00 AM86 °FPassing clouds.7 mph79%29.95 "HgN/A
8:00 AM82 °FRain showers. Scattered clouds.5 mph89%29.95 "Hg5 mi
7:00 AM81 °FPassing clouds.No wind84%29.94 "HgN/A
6:00 AM81 °FPassing clouds.No wind89%29.92 "HgN/A
Weather by CustomWeather, © 2016

See weather overviewHow to use our weather pages